This is the latest recevied weather packets stored in our database for station/object K0NV. If no packets are shown the sender has not sent any weather packets the latest 1 day(s).
| Time | Temp. | Humidity | Pressure | Rain* | Wind** | Luminosity | Snow |
|---|---|---|---|---|---|---|---|
| 1777993962 | 13.89° C | 89% | 1008.4 hPa | 0 mm | 0 m/s | 169 W/m² | - |
| 1777993658 | 13.33° C | 89% | 1007.9 hPa | 0 mm | 0.89 m/s, 56° | 200 W/m² | - |
| 1777993356 | 13.89° C | 89% | 1008.2 hPa | 0 mm | 0 m/s | 173 W/m² | - |
| 1777993050 | 13.89° C | 89% | 1008 hPa | 0 mm | 0.45 m/s, 39° | 202 W/m² | - |
| 1777992748 | 13.33° C | 89% | 1007.9 hPa | 0 mm | 0 m/s | 213 W/m² | - |
| 1777992446 | 13.33° C | 90% | 1008.3 hPa | 0 mm | 0 m/s | 227 W/m² | - |
| 1777992144 | 13.33° C | 90% | 1008.3 hPa | 0 mm | 0.45 m/s, 66° | 188 W/m² | - |
| 1777991841 | 13.33° C | 90% | 1008.4 hPa | 0 mm | 0.45 m/s, 16° | 147 W/m² | - |
| 1777991538 | 13.33° C | 90% | 1008.6 hPa | 0 mm | 0.89 m/s, 33° | 121 W/m² | - |
| 1777991235 | 13.33° C | 89% | 1008.6 hPa | 0 mm | 0.89 m/s, 273° | 167 W/m² | - |
| 1777990932 | 13.33° C | 89% | 1008.6 hPa | 0 mm | 0.89 m/s, 55° | 124 W/m² | - |
| 1777990630 | 13.89° C | 89% | 1008.9 hPa | 0 mm | 0 m/s | 170 W/m² | - |
| 1777990327 | 13.33° C | 91% | 1008.6 hPa | 0 mm | 0.45 m/s, 38° | 564 W/m² | - |
| 1777990023 | 13.33° C | 91% | 1008.7 hPa | 0 mm | 0.45 m/s, 28° | 129 W/m² | - |
| 1777989720 | 13.33° C | 91% | 1008.6 hPa | 0 mm | 0 m/s | 91 W/m² | - |
| 1777989416 | 13.33° C | 91% | 1008.5 hPa | 0 mm | 0.89 m/s, 16° | 68 W/m² | - |
| 1777989113 | 13.89° C | 92% | 1008.4 hPa | 0 mm | 0 m/s | 73 W/m² | - |
| 1777988808 | 13.89° C | 93% | 1008.3 hPa | 0 mm | 0 m/s | 75 W/m² | - |
| 1777988506 | 13.89° C | 93% | 1008.4 hPa | 0 mm | 0 m/s | 76 W/m² | - |
| 1777988203 | 13.89° C | 93% | 1008.4 hPa | 0 mm | 0 m/s | 104 W/m² | - |
| 1777987899 | 13.89° C | 95% | 1008.2 hPa | 0 mm | 0 m/s | 114 W/m² | - |
| 1777987595 | 13.89° C | 96% | 1008.3 hPa | 0 mm | 0 m/s | 131 W/m² | - |
| 1777987293 | 13.89° C | 97% | 1008.2 hPa | 0 mm | 0 m/s | 117 W/m² | - |
| 1777986990 | 13.33° C | 98% | 1008 hPa | 0 mm | 0 m/s | 88 W/m² | - |
| 1777986687 | 13.33° C | 99% | 1008.1 hPa | 0 mm | 0 m/s | 88 W/m² | - |
* Rain latest hour (hover to see other rain measurements)
** Current wind speed in m/s (hover to see current wind gust speed)